owner,sensor,date,latitude,longitude,vertical_datum,sea_water_temperature,qcFlag 
FIT,ioos:station:wmo:SIPF1:1,2017-10-05T18:30:00Z,27.8620,-80.4450,8.0,25.3,11111222 
FIT,ioos:station:wmo:SIPF1:1,2017-10-05T18:45:00Z,27.8620,-80.4450,8.0,24.9,11111222 
FIT,ioos:station:wmo:SIPF1:1,2017-10-05T19:00:00Z,27.8620,-80.4450,8.0,24.4,11111222 
FIT,ioos:station:wmo:SIPF1:1,2017-10-05T19:15:00Z,27.8620,-80.4450,8.0,24.4,11111222 
FIT,ioos:station:wmo:SIPF1:1,2017-10-05T19:30:00Z,27.8620,-80.4450,8.0,24.4,11111222 
FIT,ioos:station:wmo:SIPF1:1,2017-10-05T19:45:00Z,27.8620,-80.4450,8.0,24.4,11111222 
FIT,ioos:station:wmo:SIPF1:1,2017-10-05T20:00:00Z,27.8620,-80.4450,8.0,24.6,11111222 
FIT,ioos:station:wmo:SIPF1:1,2017-10-05T20:15:00Z,27.8620,-80.4450,8.0,24.9,11111222 
FIT,ioos:station:wmo:SIPF1:1,2017-10-05T20:30:00Z,27.8620,-80.4450,8.0,24.6,11111222 
FIT,ioos:station:wmo:SIPF1:1,2017-10-05T20:45:00Z,27.8620,-80.4450,8.0,24.3,11111222 
FIT,ioos:station:wmo:SIPF1:1,2017-10-05T21:00:00Z,27.8620,-80.4450,8.0,24.1,11111222 
FIT,ioos:station:wmo:SIPF1:1,2017-10-05T21:15:00Z,27.8620,-80.4450,8.0,24.3,11111222 
FIT,ioos:station:wmo:SIPF1:1,2017-10-05T21:30:00Z,27.8620,-80.4450,8.0,24.3,11111222 
FIT,ioos:station:wmo:SIPF1:1,2017-10-05T21:45:00Z,27.8620,-80.4450,8.0,24.5,11111222 
FIT,ioos:station:wmo:SIPF1:1,2017-10-05T22:00:00Z,27.8620,-80.4450,8.0,24.8,11111222 
FIT,ioos:station:wmo:SIPF1:1,2017-10-05T22:15:00Z,27.8620,-80.4450,8.0,25.1,11111222 
FIT,ioos:station:wmo:SIPF1:1,2017-10-05T22:30:00Z,27.8620,-80.4450,8.0,25.3,11111222 
FIT,ioos:station:wmo:SIPF1:1,2017-10-05T22:45:00Z,27.8620,-80.4450,8.0,25.4,11111222 
FIT,ioos:station:wmo:SIPF1:1,2017-10-05T23:00:00Z,27.8620,-80.4450,8.0,25.6,11111222 
FIT,ioos:station:wmo:SIPF1:1,2017-10-05T23:15:00Z,27.8620,-80.4450,8.0,25.8,11111222 
FIT,ioos:station:wmo:SIPF1:1,2017-10-05T23:30:00Z,27.8620,-80.4450,8.0,25.9,11111222 
FIT,ioos:station:wmo:SIPF1:1,2017-10-05T23:45:00Z,27.8620,-80.4450,8.0,26.0,11111222 
FIT,ioos:station:wmo:SIPF1:1,2017-10-06T00:00:00Z,27.8620,-80.4450,8.0,26.1,11111222 
FIT,ioos:station:wmo:SIPF1:1,2017-10-06T00:15:00Z,27.8620,-80.4450,8.0,26.2,11111222 
FIT,ioos:station:wmo:SIPF1:1,2017-10-06T00:30:00Z,27.8620,-80.4450,8.0,26.3,11111222 
FIT,ioos:station:wmo:SIPF1:1,2017-10-06T00:45:00Z,27.8620,-80.4450,8.0,26.3,11111222 
FIT,ioos:station:wmo:SIPF1:1,2017-10-06T01:00:00Z,27.8620,-80.4450,8.0,26.3,11111222 
FIT,ioos:station:wmo:SIPF1:1,2017-10-06T01:15:00Z,27.8620,-80.4450,8.0,26.3,11111222 
FIT,ioos:station:wmo:SIPF1:1,2017-10-06T01:30:00Z,27.8620,-80.4450,8.0,26.4,11111222 
FIT,ioos:station:wmo:SIPF1:1,2017-10-06T01:45:00Z,27.8620,-80.4450,8.0,26.5,11111222 
FIT,ioos:station:wmo:SIPF1:1,2017-10-06T02:00:00Z,27.8620,-80.4450,8.0,26.5,11111222 
FIT,ioos:station:wmo:SIPF1:1,2017-10-06T02:15:00Z,27.8620,-80.4450,8.0,26.6,11111222 
FIT,ioos:station:wmo:SIPF1:1,2017-10-06T02:30:00Z,27.8620,-80.4450,8.0,26.6,11111222 
FIT,ioos:station:wmo:SIPF1:1,2017-10-06T02:45:00Z,27.8620,-80.4450,8.0,26.7,11111222 
FIT,ioos:station:wmo:SIPF1:1,2017-10-06T03:00:00Z,27.8620,-80.4450,8.0,26.7,11111222 
FIT,ioos:station:wmo:SIPF1:1,2017-10-06T03:15:00Z,27.8620,-80.4450,8.0,26.7,11111222 
FIT,ioos:station:wmo:SIPF1:1,2017-10-06T03:30:00Z,27.8620,-80.4450,8.0,26.7,11111222 
FIT,ioos:station:wmo:SIPF1:1,2017-10-06T03:45:00Z,27.8620,-80.4450,8.0,26.7,11111222 
FIT,ioos:station:wmo:SIPF1:1,2017-10-06T04:00:00Z,27.8620,-80.4450,8.0,26.7,11111222 
FIT,ioos:station:wmo:SIPF1:1,2017-10-06T04:15:00Z,27.8620,-80.4450,8.0,26.6,11111222 
FIT,ioos:station:wmo:SIPF1:1,2017-10-06T04:30:00Z,27.8620,-80.4450,8.0,26.6,11111222 
FIT,ioos:station:wmo:SIPF1:1,2017-10-06T04:45:00Z,27.8620,-80.4450,8.0,26.6,11111222 
FIT,ioos:station:wmo:SIPF1:1,2017-10-06T05:00:00Z,27.8620,-80.4450,8.0,26.7,11111222 
FIT,ioos:station:wmo:SIPF1:1,2017-10-06T05:15:00Z,27.8620,-80.4450,8.0,26.7,11111222 
FIT,ioos:station:wmo:SIPF1:1,2017-10-06T05:30:00Z,27.8620,-80.4450,8.0,26.7,11111222 
FIT,ioos:station:wmo:SIPF1:1,2017-10-06T05:45:00Z,27.8620,-80.4450,8.0,26.7,11111222 
FIT,ioos:station:wmo:SIPF1:1,2017-10-06T06:00:00Z,27.8620,-80.4450,8.0,26.7,11111222 
FIT,ioos:station:wmo:SIPF1:1,2017-10-06T06:15:00Z,27.8620,-80.4450,8.0,26.7,11111222 
FIT,ioos:station:wmo:SIPF1:1,2017-10-06T06:30:00Z,27.8620,-80.4450,8.0,26.7,11111222 
FIT,ioos:station:wmo:SIPF1:1,2017-10-06T06:45:00Z,27.8620,-80.4450,8.0,26.7,11111222 
FIT,ioos:station:wmo:SIPF1:1,2017-10-06T07:00:00Z,27.8620,-80.4450,8.0,26.0,11111222 
FIT,ioos:station:wmo:SIPF1:1,2017-10-06T07:15:00Z,27.8620,-80.4450,8.0,25.7,11111222 
FIT,ioos:station:wmo:SIPF1:1,2017-10-06T07:30:00Z,27.8620,-80.4450,8.0,25.9,11111222 
FIT,ioos:station:wmo:SIPF1:1,2017-10-06T07:45:00Z,27.8620,-80.4450,8.0,25.9,11111222 
FIT,ioos:station:wmo:SIPF1:1,2017-10-06T08:00:00Z,27.8620,-80.4450,8.0,25.8,11111222 
FIT,ioos:station:wmo:SIPF1:1,2017-10-06T08:15:00Z,27.8620,-80.4450,8.0,26.1,11111222 
FIT,ioos:station:wmo:SIPF1:1,2017-10-06T08:30:00Z,27.8620,-80.4450,8.0,25.8,11111222 
FIT,ioos:station:wmo:SIPF1:1,2017-10-06T08:45:00Z,27.8620,-80.4450,8.0,25.8,11111222 
FIT,ioos:station:wmo:SIPF1:1,2017-10-06T09:00:00Z,27.8620,-80.4450,8.0,26.0,11111222 
FIT,ioos:station:wmo:SIPF1:1,2017-10-06T09:15:00Z,27.8620,-80.4450,8.0,26.3,11111222 
FIT,ioos:station:wmo:SIPF1:1,2017-10-06T09:30:00Z,27.8620,-80.4450,8.0,26.4,11111222 
FIT,ioos:station:wmo:SIPF1:1,2017-10-06T09:45:00Z,27.8620,-80.4450,8.0,26.4,11111222 
FIT,ioos:station:wmo:SIPF1:1,2017-10-06T10:00:00Z,27.8620,-80.4450,8.0,26.5,11111222 
FIT,ioos:station:wmo:SIPF1:1,2017-10-06T10:15:00Z,27.8620,-80.4450,8.0,26.6,11111222 
FIT,ioos:station:wmo:SIPF1:1,2017-10-06T10:30:00Z,27.8620,-80.4450,8.0,26.6,11111222 
FIT,ioos:station:wmo:SIPF1:1,2017-10-06T10:45:00Z,27.8620,-80.4450,8.0,26.6,11111222 
FIT,ioos:station:wmo:SIPF1:1,2017-10-06T11:00:00Z,27.8620,-80.4450,8.0,26.6,11111222 
FIT,ioos:station:wmo:SIPF1:1,2017-10-06T11:15:00Z,27.8620,-80.4450,8.0,26.7,11111222 
FIT,ioos:station:wmo:SIPF1:1,2017-10-06T11:30:00Z,27.8620,-80.4450,8.0,26.7,11111222 
FIT,ioos:station:wmo:SIPF1:1,2017-10-06T11:45:00Z,27.8620,-80.4450,8.0,26.8,11111222 
FIT,ioos:station:wmo:SIPF1:1,2017-10-06T12:00:00Z,27.8620,-80.4450,8.0,26.8,11111222 
FIT,ioos:station:wmo:SIPF1:1,2017-10-06T12:15:00Z,27.8620,-80.4450,8.0,26.9,11111222 
FIT,ioos:station:wmo:SIPF1:1,2017-10-06T12:30:00Z,27.8620,-80.4450,8.0,26.9,11111222 
FIT,ioos:station:wmo:SIPF1:1,2017-10-06T12:45:00Z,27.8620,-80.4450,8.0,26.9,11111222 
FIT,ioos:station:wmo:SIPF1:1,2017-10-06T13:00:00Z,27.8620,-80.4450,8.0,27.0,11111222 
FIT,ioos:station:wmo:SIPF1:1,2017-10-06T13:15:00Z,27.8620,-80.4450,8.0,27.1,11111222 
FIT,ioos:station:wmo:SIPF1:1,2017-10-06T13:30:00Z,27.8620,-80.4450,8.0,27.5,11111222 
FIT,ioos:station:wmo:SIPF1:1,2017-10-06T13:45:00Z,27.8620,-80.4450,8.0,27.8,11111222 
FIT,ioos:station:wmo:SIPF1:1,2017-10-06T14:00:00Z,27.8620,-80.4450,8.0,27.8,11111222 
FIT,ioos:station:wmo:SIPF1:1,2017-10-06T14:15:00Z,27.8620,-80.4450,8.0,27.6,11111222 
FIT,ioos:station:wmo:SIPF1:1,2017-10-06T14:30:00Z,27.8620,-80.4450,8.0,28.1,11111222 
FIT,ioos:station:wmo:SIPF1:1,2017-10-06T14:45:00Z,27.8620,-80.4450,8.0,28.5,11111222 
FIT,ioos:station:wmo:SIPF1:1,2017-10-06T15:00:00Z,27.8620,-80.4450,8.0,28.3,11111222 
FIT,ioos:station:wmo:SIPF1:1,2017-10-06T15:15:00Z,27.8620,-80.4450,8.0,28.5,11111222 
FIT,ioos:station:wmo:SIPF1:1,2017-10-06T15:30:00Z,27.8620,-80.4450,8.0,29.0,11111222 
FIT,ioos:station:wmo:SIPF1:1,2017-10-06T15:45:00Z,27.8620,-80.4450,8.0,28.8,11111222 
FIT,ioos:station:wmo:SIPF1:1,2017-10-06T16:00:00Z,27.8620,-80.4450,8.0,28.6,11111222 
FIT,ioos:station:wmo:SIPF1:1,2017-10-06T16:15:00Z,27.8620,-80.4450,8.0,28.5,11111222 
FIT,ioos:station:wmo:SIPF1:1,2017-10-06T16:30:00Z,27.8620,-80.4450,8.0,28.6,11111222 
FIT,ioos:station:wmo:SIPF1:1,2017-10-06T16:45:00Z,27.8620,-80.4450,8.0,28.2,11111222 
FIT,ioos:station:wmo:SIPF1:1,2017-10-06T17:00:00Z,27.8620,-80.4450,8.0,27.8,11111222 
FIT,ioos:station:wmo:SIPF1:1,2017-10-06T17:15:00Z,27.8620,-80.4450,8.0,27.9,11111222 
FIT,ioos:station:wmo:SIPF1:1,2017-10-06T17:30:00Z,27.8620,-80.4450,8.0,27.9,11111222 
FIT,ioos:station:wmo:SIPF1:1,2017-10-06T17:45:00Z,27.8620,-80.4450,8.0,27.9,11111222 
FIT,ioos:station:wmo:SIPF1:1,2017-10-06T18:00:00Z,27.8620,-80.4450,8.0,27.9,11111222 
FIT,ioos:station:wmo:SIPF1:1,2017-10-06T18:15:00Z,27.8620,-80.4450,8.0,28.1,11111222 
FIT,ioos:station:wmo:SIPF1:1,2017-10-06T18:30:00Z,27.8620,-80.4450,8.0,27.9,11111222 
FIT,ioos:station:wmo:SIPF1:1,2017-10-06T18:45:00Z,27.8620,-80.4450,8.0,27.8,11111222 
FIT,ioos:station:wmo:SIPF1:1,2017-10-06T19:00:00Z,27.8620,-80.4450,8.0,28.1,11111222 
FIT,ioos:station:wmo:SIPF1:1,2017-10-06T19:15:00Z,27.8620,-80.4450,8.0,28.2,11111222 
FIT,ioos:station:wmo:SIPF1:1,2017-10-06T19:30:00Z,27.8620,-80.4450,8.0,28.0,11111222 
FIT,ioos:station:wmo:SIPF1:1,2017-10-06T19:45:00Z,27.8620,-80.4450,8.0,28.0,11111222 
FIT,ioos:station:wmo:SIPF1:1,2017-10-06T20:00:00Z,27.8620,-80.4450,8.0,28.0,11111222 
FIT,ioos:station:wmo:SIPF1:1,2017-10-06T20:15:00Z,27.8620,-80.4450,8.0,27.9,11111222 
FIT,ioos:station:wmo:SIPF1:1,2017-10-06T20:30:00Z,27.8620,-80.4450,8.0,28.0,11111222 
FIT,ioos:station:wmo:SIPF1:1,2017-10-06T20:45:00Z,27.8620,-80.4450,8.0,27.8,11111222 
FIT,ioos:station:wmo:SIPF1:1,2017-10-06T21:00:00Z,27.8620,-80.4450,8.0,27.7,11111222 
FIT,ioos:station:wmo:SIPF1:1,2017-10-06T21:15:00Z,27.8620,-80.4450,8.0,27.6,11111222 
FIT,ioos:station:wmo:SIPF1:1,2017-10-06T21:30:00Z,27.8620,-80.4450,8.0,27.8,11111222 
FIT,ioos:station:wmo:SIPF1:1,2017-10-06T21:45:00Z,27.8620,-80.4450,8.0,27.8,11111222 
FIT,ioos:station:wmo:SIPF1:1,2017-10-06T22:00:00Z,27.8620,-80.4450,8.0,27.8,11111222 
FIT,ioos:station:wmo:SIPF1:1,2017-10-06T22:15:00Z,27.8620,-80.4450,8.0,27.7,11111222 
FIT,ioos:station:wmo:SIPF1:1,2017-10-06T22:30:00Z,27.8620,-80.4450,8.0,27.7,11111222 
FIT,ioos:station:wmo:SIPF1:1,2017-10-06T22:45:00Z,27.8620,-80.4450,8.0,27.6,11111222 
FIT,ioos:station:wmo:SIPF1:1,2017-10-06T23:00:00Z,27.8620,-80.4450,8.0,27.6,11111222 
FIT,ioos:station:wmo:SIPF1:1,2017-10-06T23:15:00Z,27.8620,-80.4450,8.0,27.5,11111222 
FIT,ioos:station:wmo:SIPF1:1,2017-10-06T23:30:00Z,27.8620,-80.4450,8.0,27.5,11111222 
FIT,ioos:station:wmo:SIPF1:1,2017-10-06T23:45:00Z,27.8620,-80.4450,8.0,27.5,11111222 
FIT,ioos:station:wmo:SIPF1:1,2017-10-07T00:00:00Z,27.8620,-80.4450,8.0,27.5,11111222 
FIT,ioos:station:wmo:SIPF1:1,2017-10-07T00:15:00Z,27.8620,-80.4450,8.0,27.5,11111222 
FIT,ioos:station:wmo:SIPF1:1,2017-10-07T00:30:00Z,27.8620,-80.4450,8.0,27.5,11111222 
FIT,ioos:station:wmo:SIPF1:1,2017-10-07T00:45:00Z,27.8620,-80.4450,8.0,27.5,11111222 
FIT,ioos:station:wmo:SIPF1:1,2017-10-07T01:00:00Z,27.8620,-80.4450,8.0,27.5,11111222 
FIT,ioos:station:wmo:SIPF1:1,2017-10-07T01:15:00Z,27.8620,-80.4450,8.0,27.5,11111222 
FIT,ioos:station:wmo:SIPF1:1,2017-10-07T01:30:00Z,27.8620,-80.4450,8.0,27.5,11111222 
FIT,ioos:station:wmo:SIPF1:1,2017-10-07T01:45:00Z,27.8620,-80.4450,8.0,27.4,11111222 
FIT,ioos:station:wmo:SIPF1:1,2017-10-07T02:00:00Z,27.8620,-80.4450,8.0,27.4,11111222 
FIT,ioos:station:wmo:SIPF1:1,2017-10-07T02:15:00Z,27.8620,-80.4450,8.0,27.4,11111222 
FIT,ioos:station:wmo:SIPF1:1,2017-10-07T02:30:00Z,27.8620,-80.4450,8.0,27.3,11111222 
FIT,ioos:station:wmo:SIPF1:1,2017-10-07T02:45:00Z,27.8620,-80.4450,8.0,27.2,11111222 
FIT,ioos:station:wmo:SIPF1:1,2017-10-07T03:00:00Z,27.8620,-80.4450,8.0,27.2,11111222 
FIT,ioos:station:wmo:SIPF1:1,2017-10-07T03:15:00Z,27.8620,-80.4450,8.0,27.2,11111222 
FIT,ioos:station:wmo:SIPF1:1,2017-10-07T03:30:00Z,27.8620,-80.4450,8.0,27.3,11111222 
FIT,ioos:station:wmo:SIPF1:1,2017-10-07T03:45:00Z,27.8620,-80.4450,8.0,27.3,11111222 
FIT,ioos:station:wmo:SIPF1:1,2017-10-07T04:00:00Z,27.8620,-80.4450,8.0,27.4,11111222 
FIT,ioos:station:wmo:SIPF1:1,2017-10-07T04:15:00Z,27.8620,-80.4450,8.0,27.5,11111222 
FIT,ioos:station:wmo:SIPF1:1,2017-10-07T04:30:00Z,27.8620,-80.4450,8.0,27.4,11111222 
FIT,ioos:station:wmo:SIPF1:1,2017-10-07T04:45:00Z,27.8620,-80.4450,8.0,27.5,11111222 
FIT,ioos:station:wmo:SIPF1:1,2017-10-07T05:00:00Z,27.8620,-80.4450,8.0,27.5,11111222 
FIT,ioos:station:wmo:SIPF1:1,2017-10-07T05:15:00Z,27.8620,-80.4450,8.0,27.5,11111222 
FIT,ioos:station:wmo:SIPF1:1,2017-10-07T05:30:00Z,27.8620,-80.4450,8.0,27.5,11111222 
FIT,ioos:station:wmo:SIPF1:1,2017-10-07T05:45:00Z,27.8620,-80.4450,8.0,27.5,11111222 
FIT,ioos:station:wmo:SIPF1:1,2017-10-07T06:00:00Z,27.8620,-80.4450,8.0,27.5,11111222 
FIT,ioos:station:wmo:SIPF1:1,2017-10-07T06:15:00Z,27.8620,-80.4450,8.0,27.5,11111222 
FIT,ioos:station:wmo:SIPF1:1,2017-10-07T06:30:00Z,27.8620,-80.4450,8.0,27.5,11111222 
FIT,ioos:station:wmo:SIPF1:1,2017-10-07T06:45:00Z,27.8620,-80.4450,8.0,27.4,11111222 
FIT,ioos:station:wmo:SIPF1:1,2017-10-07T07:00:00Z,27.8620,-80.4450,8.0,27.4,11111222 
FIT,ioos:station:wmo:SIPF1:1,2017-10-07T07:15:00Z,27.8620,-80.4450,8.0,27.3,11111222 
FIT,ioos:station:wmo:SIPF1:1,2017-10-07T07:30:00Z,27.8620,-80.4450,8.0,27.2,11111222 
FIT,ioos:station:wmo:SIPF1:1,2017-10-07T07:45:00Z,27.8620,-80.4450,8.0,27.1,11111222 
FIT,ioos:station:wmo:SIPF1:1,2017-10-07T08:00:00Z,27.8620,-80.4450,8.0,27.1,11111222 
FIT,ioos:station:wmo:SIPF1:1,2017-10-07T08:15:00Z,27.8620,-80.4450,8.0,27.1,11111222 
FIT,ioos:station:wmo:SIPF1:1,2017-10-07T08:30:00Z,27.8620,-80.4450,8.0,27.0,11111222 
FIT,ioos:station:wmo:SIPF1:1,2017-10-07T08:45:00Z,27.8620,-80.4450,8.0,27.0,11111222 
FIT,ioos:station:wmo:SIPF1:1,2017-10-07T09:00:00Z,27.8620,-80.4450,8.0,27.0,11111222 
FIT,ioos:station:wmo:SIPF1:1,2017-10-07T09:15:00Z,27.8620,-80.4450,8.0,27.0,11111222 
FIT,ioos:station:wmo:SIPF1:1,2017-10-07T09:30:00Z,27.8620,-80.4450,8.0,27.0,11111222 
FIT,ioos:station:wmo:SIPF1:1,2017-10-07T09:45:00Z,27.8620,-80.4450,8.0,26.9,11111222 
FIT,ioos:station:wmo:SIPF1:1,2017-10-07T10:00:00Z,27.8620,-80.4450,8.0,26.9,11111222 
FIT,ioos:station:wmo:SIPF1:1,2017-10-07T10:15:00Z,27.8620,-80.4450,8.0,26.9,11111222 
FIT,ioos:station:wmo:SIPF1:1,2017-10-07T10:30:00Z,27.8620,-80.4450,8.0,26.9,11111222 
FIT,ioos:station:wmo:SIPF1:1,2017-10-07T10:45:00Z,27.8620,-80.4450,8.0,26.9,11111222 
FIT,ioos:station:wmo:SIPF1:1,2017-10-07T11:00:00Z,27.8620,-80.4450,8.0,26.9,11111222 
FIT,ioos:station:wmo:SIPF1:1,2017-10-07T11:15:00Z,27.8620,-80.4450,8.0,26.9,11111222 
FIT,ioos:station:wmo:SIPF1:1,2017-10-07T11:30:00Z,27.8620,-80.4450,8.0,26.9,11111222 
FIT,ioos:station:wmo:SIPF1:1,2017-10-07T11:45:00Z,27.8620,-80.4450,8.0,27.0,11111222 
FIT,ioos:station:wmo:SIPF1:1,2017-10-07T12:00:00Z,27.8620,-80.4450,8.0,27.2,11111222 
FIT,ioos:station:wmo:SIPF1:1,2017-10-07T12:15:00Z,27.8620,-80.4450,8.0,27.4,11111222 
FIT,ioos:station:wmo:SIPF1:1,2017-10-07T12:30:00Z,27.8620,-80.4450,8.0,27.7,11111222 
FIT,ioos:station:wmo:SIPF1:1,2017-10-07T12:45:00Z,27.8620,-80.4450,8.0,27.8,11111222 
FIT,ioos:station:wmo:SIPF1:1,2017-10-07T13:00:00Z,27.8620,-80.4450,8.0,28.0,11111222 
FIT,ioos:station:wmo:SIPF1:1,2017-10-07T13:15:00Z,27.8620,-80.4450,8.0,28.1,11111222 
FIT,ioos:station:wmo:SIPF1:1,2017-10-07T13:30:00Z,27.8620,-80.4450,8.0,28.2,11111222 
FIT,ioos:station:wmo:SIPF1:1,2017-10-07T13:45:00Z,27.8620,-80.4450,8.0,28.4,11111222 
FIT,ioos:station:wmo:SIPF1:1,2017-10-07T14:00:00Z,27.8620,-80.4450,8.0,28.4,11111222 
FIT,ioos:station:wmo:SIPF1:1,2017-10-07T14:15:00Z,27.8620,-80.4450,8.0,28.3,11111222 
FIT,ioos:station:wmo:SIPF1:1,2017-10-07T14:30:00Z,27.8620,-80.4450,8.0,28.0,11111222 
FIT,ioos:station:wmo:SIPF1:1,2017-10-07T14:45:00Z,27.8620,-80.4450,8.0,28.0,11111222 
FIT,ioos:station:wmo:SIPF1:1,2017-10-07T15:00:00Z,27.8620,-80.4450,8.0,28.1,11111222 
FIT,ioos:station:wmo:SIPF1:1,2017-10-07T15:15:00Z,27.8620,-80.4450,8.0,28.2,11111222 
FIT,ioos:station:wmo:SIPF1:1,2017-10-07T15:30:00Z,27.8620,-80.4450,8.0,28.2,11111222 
FIT,ioos:station:wmo:SIPF1:1,2017-10-07T15:45:00Z,27.8620,-80.4450,8.0,28.4,11111222 
FIT,ioos:station:wmo:SIPF1:1,2017-10-07T16:00:00Z,27.8620,-80.4450,8.0,28.4,11111222 
FIT,ioos:station:wmo:SIPF1:1,2017-10-07T16:15:00Z,27.8620,-80.4450,8.0,28.4,11111222 
FIT,ioos:station:wmo:SIPF1:1,2017-10-07T16:30:00Z,27.8620,-80.4450,8.0,28.5,11111222 
FIT,ioos:station:wmo:SIPF1:1,2017-10-07T16:45:00Z,27.8620,-80.4450,8.0,28.4,11111222 
FIT,ioos:station:wmo:SIPF1:1,2017-10-07T17:00:00Z,27.8620,-80.4450,8.0,28.3,11111222 
FIT,ioos:station:wmo:SIPF1:1,2017-10-07T17:15:00Z,27.8620,-80.4450,8.0,28.4,11111222 
FIT,ioos:station:wmo:SIPF1:1,2017-10-07T17:30:00Z,27.8620,-80.4450,8.0,28.3,11111222 
FIT,ioos:station:wmo:SIPF1:1,2017-10-07T17:45:00Z,27.8620,-80.4450,8.0,28.4,11111222 
FIT,ioos:station:wmo:SIPF1:1,2017-10-07T18:00:00Z,27.8620,-80.4450,8.0,28.3,11111222 
FIT,ioos:station:wmo:SIPF1:1,2017-10-07T18:15:00Z,27.8620,-80.4450,8.0,28.4,11111222 
FIT,ioos:station:wmo:SIPF1:1,2017-10-07T18:30:00Z,27.8620,-80.4450,8.0,28.3,11111222 
FIT,ioos:station:wmo:SIPF1:1,2017-10-07T18:45:00Z,27.8620,-80.4450,8.0,28.4,11111222 
FIT,ioos:station:wmo:SIPF1:1,2017-10-07T19:00:00Z,27.8620,-80.4450,8.0,28.3,11111222 
FIT,ioos:station:wmo:SIPF1:1,2017-10-07T19:15:00Z,27.8620,-80.4450,8.0,28.3,11111222 
FIT,ioos:station:wmo:SIPF1:1,2017-10-07T19:30:00Z,27.8620,-80.4450,8.0,28.3,11111222 
FIT,ioos:station:wmo:SIPF1:1,2017-10-07T19:45:00Z,27.8620,-80.4450,8.0,28.4,11111222 
FIT,ioos:station:wmo:SIPF1:1,2017-10-07T20:00:00Z,27.8620,-80.4450,8.0,28.4,11111222 
FIT,ioos:station:wmo:SIPF1:1,2017-10-07T20:15:00Z,27.8620,-80.4450,8.0,28.4,11111222 
FIT,ioos:station:wmo:SIPF1:1,2017-10-07T20:30:00Z,27.8620,-80.4450,8.0,28.5,11111222 
FIT,ioos:station:wmo:SIPF1:1,2017-10-07T20:45:00Z,27.8620,-80.4450,8.0,28.5,11111222 
FIT,ioos:station:wmo:SIPF1:1,2017-10-07T21:00:00Z,27.8620,-80.4450,8.0,28.4,11111222 
FIT,ioos:station:wmo:SIPF1:1,2017-10-07T21:15:00Z,27.8620,-80.4450,8.0,28.4,11111222 
FIT,ioos:station:wmo:SIPF1:1,2017-10-07T21:30:00Z,27.8620,-80.4450,8.0,28.2,11111222 
FIT,ioos:station:wmo:SIPF1:1,2017-10-07T21:45:00Z,27.8620,-80.4450,8.0,28.2,11111222 
FIT,ioos:station:wmo:SIPF1:1,2017-10-07T22:00:00Z,27.8620,-80.4450,8.0,28.2,11111222 
FIT,ioos:station:wmo:SIPF1:1,2017-10-07T22:15:00Z,27.8620,-80.4450,8.0,28.0,11111222 
FIT,ioos:station:wmo:SIPF1:1,2017-10-07T22:30:00Z,27.8620,-80.4450,8.0,27.8,11111222 
FIT,ioos:station:wmo:SIPF1:1,2017-10-07T22:45:00Z,27.8620,-80.4450,8.0,27.8,11111222 
FIT,ioos:station:wmo:SIPF1:1,2017-10-07T23:00:00Z,27.8620,-80.4450,8.0,27.8,11111222 
FIT,ioos:station:wmo:SIPF1:1,2017-10-07T23:15:00Z,27.8620,-80.4450,8.0,27.8,11111222 
FIT,ioos:station:wmo:SIPF1:1,2017-10-07T23:30:00Z,27.8620,-80.4450,8.0,27.9,11111222 
FIT,ioos:station:wmo:SIPF1:1,2017-10-07T23:45:00Z,27.8620,-80.4450,8.0,27.8,11111222 
FIT,ioos:station:wmo:SIPF1:1,2017-10-08T00:00:00Z,27.8620,-80.4450,8.0,27.9,11111222 
FIT,ioos:station:wmo:SIPF1:1,2017-10-08T00:15:00Z,27.8620,-80.4450,8.0,27.9,11111222 
FIT,ioos:station:wmo:SIPF1:1,2017-10-08T00:30:00Z,27.8620,-80.4450,8.0,27.9,11111222 
FIT,ioos:station:wmo:SIPF1:1,2017-10-08T00:45:00Z,27.8620,-80.4450,8.0,27.9,11111222 
FIT,ioos:station:wmo:SIPF1:1,2017-10-08T01:00:00Z,27.8620,-80.4450,8.0,27.9,11111222 
FIT,ioos:station:wmo:SIPF1:1,2017-10-08T01:15:00Z,27.8620,-80.4450,8.0,27.8,11111222 
FIT,ioos:station:wmo:SIPF1:1,2017-10-08T01:30:00Z,27.8620,-80.4450,8.0,27.8,11111222 
FIT,ioos:station:wmo:SIPF1:1,2017-10-08T01:45:00Z,27.8620,-80.4450,8.0,27.8,11111222 
FIT,ioos:station:wmo:SIPF1:1,2017-10-08T02:00:00Z,27.8620,-80.4450,8.0,27.8,11111222 
FIT,ioos:station:wmo:SIPF1:1,2017-10-08T02:15:00Z,27.8620,-80.4450,8.0,27.7,11111222 
FIT,ioos:station:wmo:SIPF1:1,2017-10-08T02:30:00Z,27.8620,-80.4450,8.0,27.7,11111222 
FIT,ioos:station:wmo:SIPF1:1,2017-10-08T02:45:00Z,27.8620,-80.4450,8.0,27.7,11111222 
FIT,ioos:station:wmo:SIPF1:1,2017-10-08T03:00:00Z,27.8620,-80.4450,8.0,27.7,11111222 
FIT,ioos:station:wmo:SIPF1:1,2017-10-08T03:15:00Z,27.8620,-80.4450,8.0,27.7,11111222 
FIT,ioos:station:wmo:SIPF1:1,2017-10-08T03:30:00Z,27.8620,-80.4450,8.0,27.7,11111222 
FIT,ioos:station:wmo:SIPF1:1,2017-10-08T03:45:00Z,27.8620,-80.4450,8.0,27.7,11111222 
FIT,ioos:station:wmo:SIPF1:1,2017-10-08T04:00:00Z,27.8620,-80.4450,8.0,27.6,11111222 
FIT,ioos:station:wmo:SIPF1:1,2017-10-08T04:15:00Z,27.8620,-80.4450,8.0,27.6,11111222 
FIT,ioos:station:wmo:SIPF1:1,2017-10-08T04:30:00Z,27.8620,-80.4450,8.0,27.7,11111222 
FIT,ioos:station:wmo:SIPF1:1,2017-10-08T04:45:00Z,27.8620,-80.4450,8.0,27.6,11111222 
FIT,ioos:station:wmo:SIPF1:1,2017-10-08T05:00:00Z,27.8620,-80.4450,8.0,27.6,11111222 
FIT,ioos:station:wmo:SIPF1:1,2017-10-08T05:15:00Z,27.8620,-80.4450,8.0,27.5,11111222 
FIT,ioos:station:wmo:SIPF1:1,2017-10-08T05:30:00Z,27.8620,-80.4450,8.0,27.6,11111222 
FIT,ioos:station:wmo:SIPF1:1,2017-10-08T05:45:00Z,27.8620,-80.4450,8.0,27.6,11111222 
FIT,ioos:station:wmo:SIPF1:1,2017-10-08T06:00:00Z,27.8620,-80.4450,8.0,27.6,11111222 
FIT,ioos:station:wmo:SIPF1:1,2017-10-08T06:15:00Z,27.8620,-80.4450,8.0,27.5,11111222 
FIT,ioos:station:wmo:SIPF1:1,2017-10-08T06:30:00Z,27.8620,-80.4450,8.0,27.5,11111222 
FIT,ioos:station:wmo:SIPF1:1,2017-10-08T06:45:00Z,27.8620,-80.4450,8.0,27.4,11111222 
FIT,ioos:station:wmo:SIPF1:1,2017-10-08T07:00:00Z,27.8620,-80.4450,8.0,27.3,11111222 
FIT,ioos:station:wmo:SIPF1:1,2017-10-08T07:15:00Z,27.8620,-80.4450,8.0,27.3,11111222 
FIT,ioos:station:wmo:SIPF1:1,2017-10-08T07:30:00Z,27.8620,-80.4450,8.0,27.2,11111222 
FIT,ioos:station:wmo:SIPF1:1,2017-10-08T07:45:00Z,27.8620,-80.4450,8.0,27.2,11111222 
FIT,ioos:station:wmo:SIPF1:1,2017-10-08T08:00:00Z,27.8620,-80.4450,8.0,27.1,11111222 
FIT,ioos:station:wmo:SIPF1:1,2017-10-08T08:15:00Z,27.8620,-80.4450,8.0,27.0,11111222 
FIT,ioos:station:wmo:SIPF1:1,2017-10-08T08:30:00Z,27.8620,-80.4450,8.0,26.9,11111222 
FIT,ioos:station:wmo:SIPF1:1,2017-10-08T08:45:00Z,27.8620,-80.4450,8.0,26.7,11111222 
FIT,ioos:station:wmo:SIPF1:1,2017-10-08T09:00:00Z,27.8620,-80.4450,8.0,26.6,11111222 
FIT,ioos:station:wmo:SIPF1:1,2017-10-08T09:15:00Z,27.8620,-80.4450,8.0,26.7,11111222 
FIT,ioos:station:wmo:SIPF1:1,2017-10-08T09:30:00Z,27.8620,-80.4450,8.0,26.7,11111222 
FIT,ioos:station:wmo:SIPF1:1,2017-10-08T09:45:00Z,27.8620,-80.4450,8.0,26.7,11111222 
FIT,ioos:station:wmo:SIPF1:1,2017-10-08T10:00:00Z,27.8620,-80.4450,8.0,26.7,11111222 
FIT,ioos:station:wmo:SIPF1:1,2017-10-08T10:15:00Z,27.8620,-80.4450,8.0,26.7,11111222 
FIT,ioos:station:wmo:SIPF1:1,2017-10-08T10:30:00Z,27.8620,-80.4450,8.0,26.7,11111222 
FIT,ioos:station:wmo:SIPF1:1,2017-10-08T10:45:00Z,27.8620,-80.4450,8.0,26.8,11111222 
FIT,ioos:station:wmo:SIPF1:1,2017-10-08T11:00:00Z,27.8620,-80.4450,8.0,26.6,11111222 
FIT,ioos:station:wmo:SIPF1:1,2017-10-08T11:15:00Z,27.8620,-80.4450,8.0,26.7,11111222 
FIT,ioos:station:wmo:SIPF1:1,2017-10-08T11:30:00Z,27.8620,-80.4450,8.0,26.8,11111222 
FIT,ioos:station:wmo:SIPF1:1,2017-10-08T11:45:00Z,27.8620,-80.4450,8.0,26.6,11111222 
FIT,ioos:station:wmo:SIPF1:1,2017-10-08T12:00:00Z,27.8620,-80.4450,8.0,26.6,11111222 
FIT,ioos:station:wmo:SIPF1:1,2017-10-08T12:15:00Z,27.8620,-80.4450,8.0,26.8,11111222 
FIT,ioos:station:wmo:SIPF1:1,2017-10-08T12:30:00Z,27.8620,-80.4450,8.0,27.1,11111222 
FIT,ioos:station:wmo:SIPF1:1,2017-10-08T12:45:00Z,27.8620,-80.4450,8.0,27.3,11111222 
FIT,ioos:station:wmo:SIPF1:1,2017-10-08T13:00:00Z,27.8620,-80.4450,8.0,27.5,11111222 
FIT,ioos:station:wmo:SIPF1:1,2017-10-08T13:15:00Z,27.8620,-80.4450,8.0,27.7,11111222 
FIT,ioos:station:wmo:SIPF1:1,2017-10-08T13:30:00Z,27.8620,-80.4450,8.0,27.9,11111222 
FIT,ioos:station:wmo:SIPF1:1,2017-10-08T13:45:00Z,27.8620,-80.4450,8.0,28.1,11111222 
FIT,ioos:station:wmo:SIPF1:1,2017-10-08T14:00:00Z,27.8620,-80.4450,8.0,28.1,11111222 
FIT,ioos:station:wmo:SIPF1:1,2017-10-08T14:15:00Z,27.8620,-80.4450,8.0,28.1,11111222 
FIT,ioos:station:wmo:SIPF1:1,2017-10-08T14:30:00Z,27.8620,-80.4450,8.0,28.1,11111222 
FIT,ioos:station:wmo:SIPF1:1,2017-10-08T14:45:00Z,27.8620,-80.4450,8.0,28.1,11111222 
FIT,ioos:station:wmo:SIPF1:1,2017-10-08T15:00:00Z,27.8620,-80.4450,8.0,28.1,11111222 
FIT,ioos:station:wmo:SIPF1:1,2017-10-08T15:15:00Z,27.8620,-80.4450,8.0,28.1,11111222 
FIT,ioos:station:wmo:SIPF1:1,2017-10-08T15:30:00Z,27.8620,-80.4450,8.0,28.2,11111222 
FIT,ioos:station:wmo:SIPF1:1,2017-10-08T15:45:00Z,27.8620,-80.4450,8.0,28.2,11111222 